User: anonymous
Location: Caltech
(34.1382°N, 118.1253°W)
Time: 22:45:50
(UTC-07:00)
Language:

PANSAT - Orbit

View from above orbital plane
View from above orbital plane
View from above satellite
View from above satellite

Ground track
Ground track

The orbit data is extracted from the following two-line orbital elements,

1 25520U 98064B   14212.64797113  .00002365  00000-0  87220-4 0  5387
2 25520 028.4574 288.8445 0003961 240.1852 245.9629 15.23703135873427
Epoch (UTC): 31 July 2014 15:33:04
Eccentricity: 0.0003961
inclination: 28.4574°
perigee height: 492 km
apogee height: 497 km
right ascension of ascending node: 288.8445°
argument of perigee: 240.1852°
revolutions per day: 15.23703135
mean anomaly at epoch: 245.9629°
orbit number at epoch: 87342

The dashed part of the orbit path shows where the satellite is in the earth's shadow,  

DLR